Dallas/Ft Worth, TX

6:39 PM CST on November 13, 2019 (GMT -0600)
Dallas-Fort Worth International

Weather History for KDFW - September, 2019

Change the Weather History Date:

Wednesday, September 18, 2019

  Actual Average Record
Temperature  
Mean Temperature 83 °F 77 °F  
Max Temperature 93 °F 88 °F 100 °F (1975)
Min Temperature 73 °F 67 °F 47 °F (1981)
Degree Days  
Heating Degree Days 0 0  
Month to date heating degree days 0 0  
Since 1 July heating degree days 0 0  
Cooling Degree Days 18 12  
Month to date cooling degree days 379 273  
Year to date cooling degree days 2581 2455  
Growing Degree Days 33 (Base 50)    
Moisture  
Dew Point 69 °F    
Average Humidity 65    
Maximum Humidity 87    
Minimum Humidity 44    
Precipitation  
Precipitation 0.00 in 0.08 in 0.51 in (2001)
Month to date precipitation 0.00 1.63  
Year to date precipitation 27.13 25.74  
Sea Level Pressure  
Sea Level Pressure 29.87 in    
Wind  
Wind Speed 5 mph ()    
Max Wind Speed 21 mph    
Max Gust Speed 25 mph    
Visibility 10.0 miles    
Events      
T = Trace of Precipitation, MM = Missing Value Source: Averaged Metar Reports

Daily Weather History Graph

Daily Weather History Graph

Search for Another Location

Airport or City:

Astronomy

Sep. 18, 2019 Rise Set
Actual Time 7:13 AM CDT 7:30 PM CDT
Civil Twilight 6:48 AM CDT 7:55 PM CDT
Nautical Twilight 6:20 AM CDT 8:24 PM CDT
Astronomical Twilight 5:50 AM CDT 8:53 PM CDT
Moon 10:18 PM CDT (9/18) 11:06 AM CDT (9/18)
Length of Visible Light 13h 06m
Length of Day
12h 16m
Waning Gibbous, 82% of the Moon is Illuminated
Sep 18
Waning Gibbous
Sep 21
Last Quarter
Sep 28
New
Oct 5
First Quarter
Oct 13
Full

Hourly Weather History & Observations

Time (CDT) Temp. Heat Index Dew Point Humidity Pressure Visibility Wind Dir Wind Speed Gust Speed Precip Events Conditions
12:53 AM 78.1 °F - 68.0 °F 71% 29.88 in 10.0 mi SE 3.5 mph - N/A   Clear
1:53 AM 78.1 °F - 68.0 °F 71% 29.91 in 10.0 mi SE 4.6 mph - N/A   Clear
2:53 AM 78.1 °F - 68.0 °F 71% 29.88 in 10.0 mi Calm Calm - N/A   Partly Cloudy
3:53 AM 77.0 °F - 68.0 °F 74% 29.86 in 10.0 mi ESE 6.9 mph - N/A   Partly Cloudy
4:53 AM 77.0 °F - 69.1 °F 76% 29.87 in 10.0 mi SSE 8.1 mph - N/A   Partly Cloudy
5:53 AM 75.0 °F - 69.1 °F 82% 29.88 in 10.0 mi SE 3.5 mph - N/A   Partly Cloudy
6:53 AM 73.9 °F - 69.1 °F 85% 29.89 in 10.0 mi ESE 4.6 mph - N/A   Partly Cloudy
8:53 AM 79.0 °F - 70.0 °F 74% 29.92 in 10.0 mi East 5.8 mph - N/A   Partly Cloudy
9:53 AM 82.0 °F 86.3 °F 71.1 °F 69% 29.92 in 10.0 mi NE 6.9 mph - N/A   Partly Cloudy
10:53 AM 84.0 °F 88.4 °F 70.0 °F 63% 29.93 in 10.0 mi Variable 4.6 mph - N/A   Scattered Clouds
11:53 AM 87.1 °F 92.0 °F 70.0 °F 57% 29.91 in 10.0 mi NE 10.4 mph - N/A   Scattered Clouds
12:53 PM 87.1 °F 92.0 °F 70.0 °F 57% 29.90 in 10.0 mi Variable 5.8 mph 16.1 mph N/A   Scattered Clouds
1:53 PM 90.0 °F 94.5 °F 69.1 °F 50% 29.87 in 10.0 mi East 9.2 mph - N/A   Scattered Clouds
2:53 PM 90.0 °F 94.5 °F 69.1 °F 50% 29.85 in 10.0 mi ENE 8.1 mph - N/A   Mostly Cloudy
3:53 PM 91.9 °F 96.9 °F 69.1 °F 47% 29.83 in 10.0 mi ENE 8.1 mph - N/A   Scattered Clouds
4:53 PM 91.9 °F 95.9 °F 68.0 °F 45% 29.82 in 10.0 mi East 5.8 mph - N/A   Scattered Clouds
5:53 PM 91.9 °F 95.4 °F 66.9 °F 44% 29.82 in 10.0 mi East 8.1 mph - N/A   Partly Cloudy
6:53 PM 90.0 °F 93.6 °F 68.0 °F 48% 29.82 in 10.0 mi ENE 10.4 mph - N/A   Partly Cloudy
7:53 PM 84.0 °F 88.4 °F 70.0 °F 63% 29.84 in 10.0 mi East 12.7 mph - N/A   Partly Cloudy
8:53 PM 82.9 °F 87.0 °F 70.0 °F 65% 29.86 in 10.0 mi East 4.6 mph - N/A   Partly Cloudy
9:53 PM 81.0 °F 84.9 °F 71.1 °F 72% 29.87 in 10.0 mi East 8.1 mph - N/A   Partly Cloudy
10:53 PM 79.0 °F - 71.1 °F 77% 29.88 in 10.0 mi East 3.5 mph - N/A   Partly Cloudy
11:53 PM 79.0 °F - 71.1 °F 77% 29.88 in 10.0 mi East 5.8 mph - N/A   Partly Cloudy